Joplin, MO

2:00 PM CST on February 21, 2017 (GMT -0600)
Joplin Regional

Weather History for KJLN - March, 2012

Change the Weather History Date:

Thursday, March 22, 2012

  Actual Average Record
Temperature  
Mean Temperature 54 °F 51 °F  
Max Temperature 62 °F 62 °F 90 °F (1995)
Min Temperature 45 °F 39 °F 11 °F (1955)
Degree Days  
Heating Degree Days 11 15  
Month to date heating degree days 190 389  
Since 1 July heating degree days 3104 3643  
Cooling Degree Days 0 0  
Month to date cooling degree days 40 0  
Year to date cooling degree days 40 1  
Growing Degree Days 4 (Base 50)    
Moisture  
Dew Point 47 °F    
Average Humidity 82    
Maximum Humidity 100    
Minimum Humidity 64    
Precipitation  
Precipitation 0.23 in 0.12 in 1.11 in (1948)
Month to date precipitation 6.23 2.34  
Year to date precipitation 8.97 6.69  
Snow  
Snow 0.00 in - - ()
Month to date snowfall T  
Snow Depth 0.00 in    
Sea Level Pressure  
Sea Level Pressure 29.88 in    
Wind  
Wind Speed 10 mph (SE)    
Max Wind Speed 29 mph    
Max Gust Speed 37 mph    
Visibility 10 miles    
Events Rain    
T = Trace of Precipitation, MM = Missing Value Source: NWS Daily Summary

Daily Weather History Graph

Daily Weather History Graph

Search for Another Location

Airport or City:

Trip Planner

Search our weather history database for the weather conditions in past years. The results will help you decide how hot, cold, wet, or windy it might be!

Date:

Astronomy

Mar. 22, 2012 Rise Set
Actual Time 7:17 AM CDT 7:32 PM CDT
Civil Twilight 6:51 AM CDT 7:58 PM CDT
Nautical Twilight 6:21 AM CDT 8:28 PM CDT
Astronomical Twilight 5:50 AM CDT 8:59 PM CDT
Moon 6:58 AM CDT (3/22) 7:55 PM CDT (3/22)
Length of Visible Light 13h 06m
Length of Day
12h 14m
New Moon, 0% of the Moon is Illuminated
Mar 22
New Moon
Mar 30
First Quarter
Apr 6
Full
Apr 13
Last Quarter
Apr 21
New

Hourly Weather History & Observations

Time (CDT) Temp. Windchill Dew Point Humidity Pressure Visibility Wind Dir Wind Speed Gust Speed Precip Events Conditions
12:20 AM 50.0 °F - 46.4 °F 87% 29.91 in 10.0 mi Calm Calm - N/A   Mostly Cloudy
12:53 AM 46.9 °F - 46.0 °F 97% 29.89 in 10.0 mi East 4.6 mph - N/A   Mostly Cloudy
1:53 AM 46.0 °F 43.1 °F 44.1 °F 93% 29.88 in 10.0 mi ESE 5.8 mph - N/A   Clear
2:53 AM 46.9 °F - 45.0 °F 93% 29.88 in 10.0 mi East 8.1 mph - N/A   Clear
3:53 AM 46.9 °F - 45.0 °F 93% 29.88 in 10.0 mi East 6.9 mph - N/A   Clear
4:53 AM 46.9 °F - 45.0 °F 93% 29.88 in 10.0 mi East 8.1 mph - N/A   Clear
5:53 AM 48.0 °F - 46.0 °F 93% 29.89 in 10.0 mi ESE 11.5 mph - N/A   Clear
6:53 AM 48.0 °F - 46.0 °F 93% 29.90 in 10.0 mi ESE 9.2 mph - N/A   Clear
7:53 AM 50.0 °F - 46.9 °F 89% 29.92 in 10.0 mi ESE 10.4 mph - N/A   Overcast
8:53 AM 52.0 °F - 46.9 °F 83% 29.92 in 10.0 mi ESE 12.7 mph 20.7 mph N/A   Mostly Cloudy
9:53 AM 55.0 °F - 48.0 °F 77% 29.93 in 10.0 mi SE 13.8 mph 19.6 mph N/A   Scattered Clouds
10:53 AM 54.0 °F - 48.0 °F 80% 29.95 in 10.0 mi SE 10.4 mph - 0.00 in Rain Light Rain
11:53 AM 57.9 °F - 50.0 °F 75% 29.90 in 10.0 mi ESE 12.7 mph - 0.00 in   Mostly Cloudy
12:53 PM 61.0 °F - 48.0 °F 62% 29.88 in 10.0 mi SSE 13.8 mph 23.0 mph N/A   Mostly Cloudy
1:53 PM 54.0 °F - 48.0 °F 80% 29.86 in 2.0 mi SE 17.3 mph 26.5 mph 0.04 in Rain Rain
2:07 PM 55.4 °F - 51.8 °F 88% 29.86 in 10.0 mi SSE 11.5 mph - 0.02 in Rain Light Rain
2:53 PM 54.0 °F - 46.9 °F 77% 29.86 in 8.0 mi South 24.2 mph 34.5 mph 0.03 in Rain Light Rain
3:53 PM 52.0 °F - 48.9 °F 89% 29.85 in 6.0 mi South 8.1 mph - 0.05 in Rain Light Rain
4:53 PM 53.1 °F - 50.0 °F 89% 29.83 in 10.0 mi SSE 5.8 mph - 0.04 in Rain Light Rain
5:53 PM 55.0 °F - 50.0 °F 83% 29.83 in 10.0 mi SSE 11.5 mph - 0.00 in Rain Light Rain
6:53 PM 54.0 °F - 48.9 °F 83% 29.82 in 10.0 mi ESE 8.1 mph - 0.00 in   Overcast
7:53 PM 54.0 °F - 48.0 °F 80% 29.83 in 9.0 mi South 12.7 mph - 0.01 in Rain Light Rain
8:53 PM 50.0 °F - 48.0 °F 93% 29.85 in 10.0 mi West 5.8 mph - 0.01 in Rain Light Rain
9:27 PM 48.2 °F - 48.2 °F 100% 29.85 in 10.0 mi Calm Calm - 0.05 in Rain Light Rain
9:53 PM 48.9 °F - 48.0 °F 97% 29.86 in 10.0 mi SSW 4.6 mph - 0.05 in   Overcast
10:39 PM 48.2 °F - 48.2 °F 100% 29.87 in 10.0 mi South 5.8 mph - N/A   Overcast
10:53 PM 48.9 °F - 48.0 °F 97% 29.87 in 10.0 mi South 5.8 mph - N/A   Overcast
11:53 PM 46.0 °F 43.1 °F 45.0 °F 96% 29.88 in 10.0 mi South 5.8 mph - N/A   Clear